Regional Weather Roundup
Issued by NWS Kansas City/Pleasant Hill, MO

Home | Current Version | Previous Version | Graphics & Text | Print | Product List | Glossary Off
Versions: 1 2 3 4 5 6 7 8 9 10 11 12 13 14 15 16 17 18 19 20 21 22 23 24 25 26 27 28 29 30 31 32 33 34 35 36 37 38 39 40 41 42 43 44 45 46 47 48 49 50

000
ASUS43 KEAX 111510
RWREAX

WEATHER ROUNDUP FOR EASTERN KANSAS AND NORTHWEST MISSOURI
NATIONAL WEATHER SERVICE KANSAS CITY/PLEASANT HILL MO
900 AM CST THU FEB 11 2016

KSZ040-057-103>105-MOZ028-029-037-043-111600-
...KANSAS CITY METROPOLITAN AREA...

CITY           SKY/WX    TMP DP  RH WIND       PRES   REMARKS
K.C. INTL      PTSUNNY   23  19  85 CALM      30.29R
K.C. DOWNTOWN  CLOUDY    26  20  77 E10       30.30R WCI  16
LEES SUMMIT    CLOUDY    25  20  81 E9        30.29R WCI  15
OLATHE - IXD   SUNNY     25  18  74 E9        30.28R WCI  15
OLATHE - OJC   SUNNY     24  18  77 E12       30.27R WCI  13
LAWRENCE       SUNNY     26  20  77 NE8       30.30R WCI  18

$$

MOZ001>008-011>017-020>025-030>033-038>040-044>046-053-054-111600-
...NORTHERN AND CENTRAL MISSOURI...

CITY           SKY/WX    TMP DP  RH WIND       PRES   REMARKS
ST. JOSEPH     SUNNY     23  16  74 E8        30.34R WCI  14
MOSBY          CLOUDY    27  19  74 E5        30.30R WCI  21
WARRENSBURG    CLOUDY    27  21  80 NE10      30.30R WCI  17
WHITEMAN AFB   PTSUNNY   25  20  82 E10       30.29R WCI  15
CLINTON          N/A     28  23  80 E9        30.29R WCI  20
SEDALIA        CLOUDY    25  18  74 NE12      30.30R WCI  14
WARSAW         NOT AVBL
CHILLICOTHE      N/A     22  13  68 NE8       30.34R WCI  12
KIRKSVILLE     CLOUDY    15   5  64 NE8       30.33R WCI   4

$$

MOZ041-047>049-056>058-063>065-088>090-097-111600-
...EASTERN AND SOUTHERN MISSOURI...

CITY           SKY/WX    TMP DP  RH WIND       PRES   REMARKS
ST. LOUIS INTL CLOUDY    23  16  74 NE6       30.33R WCI  16
SPIRIT OF STL  CLOUDY    23  17  78 E7        30.33R WCI  15
COLUMBIA       CLOUDY    22  14  71 NE10      30.30R WCI  11
JEFFERSON CITY CLOUDY    25  17  72 VRB6      30.32R WCI  18
ROLLA          PTSUNNY   24  20  84 NE12      30.24R WCI  13
OSAGE BEACH    SUNNY     27  18  69 NE9       30.27S WCI  17
SPRINGFIELD    SUNNY     29  15  56 NE7       30.19R WCI  22
BRANSON        SUNNY     28  14  54 CALM      30.19R
JOPLIN         SUNNY     29  20  69 NE9       30.22R WCI  20
WEST PLAINS    SUNNY     28  13  53 E7        30.21R WCI  21

$$

IAZ060-094-KSZ022-034>040-054-083-096-NEZ052-066-093-111600-
...KANSAS...SOUTHEAST NEBRASKA AND IOWA...

CITY           SKY/WX    TMP DP  RH WIND       PRES   REMARKS
TOPEKA         SUNNY     26  20  77 NE8       30.30R WCI  18
MANHATTAN      CLOUDY    25  22  88 NE10      30.29R WCI  15
EMPORIA        PTSUNNY   25  21  85 NE10      30.26R WCI  15
CHANUTE        SUNNY     28  21  75 NE9       30.25R WCI  19
WICHITA        MOSUNNY   30  22  72 N15       30.23R WCI  19
OMAHA          CLOUDY    15   4  61 E7        30.31F WCI   5
LINCOLN        CLOUDY    19  15  84 E6        30.30S WCI  11
FALLS CITY     PTSUNNY   21  16  81 NE6       30.32R WCI  13
LAMONI         CLOUDY    14   3  61 NE7       30.32R WCI   4
DES MOINES     MOSUNNY   11  -1  58 NE3       30.35R

$$




USA.gov is the U.S. government's official web portal to all federal, state and local government web resources and services.